Weather History for New Haven, CT

Change the Weather History Date:

Tuesday, January 28, 2014

  Actual Average Record
Temperature  
Mean Temperature 16 °F -  
Max Temperature 21 °F 35 °F 65 °F (1974)
Min Temperature 12 °F 21 °F 3 °F (2000)
Degree Days  
Heating Degree Days 48    
Moisture  
Dew Point -6 °F    
Average Humidity 36    
Maximum Humidity 45    
Minimum Humidity 30    
Precipitation  
Precipitation 0.00 in - - ()
Sea Level Pressure  
Sea Level Pressure 30.26 in    
Wind  
Wind Speed 8 mph (NW)    
Max Wind Speed 12 mph    
Max Gust Speed 24 mph    
Visibility 10 miles    
Events      
Averages and records for this station are not official NWS values.
T = Trace of Precipitation, MM = Missing Value Source: NWS Daily Summary

Daily Weather History Graph

Daily Weather History Graph

Search for Another Location

Airport:

Trip Planner

Search our weather history database for the weather conditions in past years. The results will help you decide how hot, cold, wet, or windy it might be!

Date:

Astronomy

Jan. 28, 2014 Rise Set
Actual Time 7:06 AM EST 5:03 PM EST
Civil Twilight 6:36 AM EST 5:32 PM EST
Nautical Twilight 6:03 AM EST 6:05 PM EST
Astronomical Twilight 5:31 AM EST 6:38 PM EST
Moon 4:45 AM EST (1/28) 2:49 PM EST (1/28)
Length of Visible Light 10h 55m
Length of Day
9h 56m
Waning Crescent, 7% of the Moon is Illuminated
Jan 28
Waning Crescent
Jan 30
New
Feb 6
First Quarter
Feb 14
Full
Feb 22
Last Quarter

Hourly Weather History & Observations

Time (EST) Temp. Windchill Dew Point Humidity Pressure Visibility Wind Dir Wind Speed Gust Speed Precip Events Conditions
12:53 AM 21.0 °F 9.9 °F -4.0 °F 33% 30.06 in 10.0 mi NW 10.4 mph 20.7 mph N/A   Clear
1:53 AM 19.0 °F 8.2 °F -4.0 °F 36% 30.11 in 10.0 mi NW 9.2 mph 24.2 mph N/A   Clear
2:53 AM 18.0 °F 6.1 °F -7.1 °F 33% 30.13 in 10.0 mi NW 10.4 mph - N/A   Clear
3:53 AM 17.1 °F 4.3 °F -6.0 °F 36% 30.17 in 10.0 mi NW 11.5 mph 19.6 mph N/A   Clear
4:53 AM 16.0 °F 4.4 °F -6.0 °F 38% 30.20 in 10.0 mi NW 9.2 mph - N/A   Clear
5:53 AM 15.1 °F 5.2 °F -7.1 °F 37% 30.24 in 10.0 mi Variable 6.9 mph 18.4 mph N/A   Clear
6:53 AM 14.0 °F 0.5 °F -5.1 °F 43% 30.27 in 10.0 mi NW 11.5 mph - N/A   Scattered Clouds
7:53 AM 12.9 °F 0.7 °F -5.1 °F 45% 30.30 in 10.0 mi NW 9.2 mph 20.7 mph N/A   Mostly Cloudy
8:53 AM 12.9 °F -0.2 °F -5.1 °F 45% 30.33 in 10.0 mi WNW 10.4 mph 18.4 mph N/A   Mostly Cloudy
9:53 AM 14.0 °F 3.9 °F -6.0 °F 41% 30.34 in 10.0 mi Variable 6.9 mph - N/A   Clear
10:53 AM 18.0 °F 7.7 °F -6.0 °F 35% 30.34 in 10.0 mi NW 8.1 mph - N/A   Mostly Cloudy
11:53 AM 18.0 °F 9.8 °F -7.1 °F 33% 30.32 in 10.0 mi West 5.8 mph - N/A   Mostly Cloudy
12:53 PM 19.0 °F 13.9 °F -6.0 °F 33% 30.30 in 10.0 mi WSW 3.5 mph - N/A   Mostly Cloudy
1:53 PM 19.9 °F 13.4 °F -7.1 °F 30% 30.29 in 10.0 mi Variable 4.6 mph - N/A   Overcast
2:53 PM 19.0 °F 13.9 °F -8.0 °F 30% 30.29 in 10.0 mi Variable 3.5 mph - N/A   Mostly Cloudy
3:53 PM 19.9 °F 13.4 °F -6.0 °F 32% 30.32 in 10.0 mi WSW 4.6 mph - N/A   Overcast
4:53 PM 19.0 °F 12.3 °F -7.1 °F 31% 30.31 in 10.0 mi West 4.6 mph - N/A   Overcast
5:53 PM 19.0 °F 13.9 °F -6.0 °F 33% 30.31 in 10.0 mi NW 3.5 mph - N/A   Scattered Clouds
6:53 PM 18.0 °F 9.8 °F -5.1 °F 36% 30.31 in 10.0 mi NNW 5.8 mph - N/A   Overcast
7:53 PM 18.0 °F 9.8 °F -6.0 °F 35% 30.30 in 10.0 mi NNW 5.8 mph - N/A   Overcast
8:53 PM 18.0 °F 8.7 °F -6.0 °F 35% 30.30 in 10.0 mi NW 6.9 mph - N/A   Overcast
9:53 PM 18.0 °F 9.8 °F -6.0 °F 35% 30.26 in 10.0 mi NNW 5.8 mph - N/A   Overcast
10:53 PM 18.0 °F 12.7 °F -5.1 °F 36% 30.25 in 10.0 mi NW 3.5 mph - N/A   Overcast
11:53 PM 17.1 °F 10.0 °F -6.0 °F 36% 30.22 in 10.0 mi NW 4.6 mph - N/A   Overcast